Location: ??????????
(44.2167°N, 135.5333°E)
Time: 14:07:20
(UTC+00:00)

Cosmos 2016 Rocket - Pass Details

Date: 15 June 2025
Orbit: 947 x 998 km, 83.0° (Epoch: 15 July)

Event Time Altitude Azimuth Distance (km) Brightness Sun altitude
Rises 12:41:10 0° 352° (N) 3,706 8.3 -15.5°
Reaches altitude 10° 12:43:41 10° 353° (N) 2,760 7.4 -15.7°
Maximum altitude 12:50:03 84° 83° (E) 1,007 4.0 -16.3°
Enters shadow 12:54:13 23° 170° (S) 1,965 5.0 -16.7°
